Weather History for KOFF - February, 2013

Change the Weather History Date:

Sunday, February 10, 2013

  Actual Average Record
Temperature  
Mean Temperature 39 °F -  
Max Temperature 46 °F 36 °F 86 °F (2004)
Min Temperature 31 °F 18 °F -8 °F (2014)
Degree Days  
Heating Degree Days 26    
Moisture  
Dew Point 36 °F    
Average Humidity 91    
Maximum Humidity 100    
Minimum Humidity 67    
Precipitation  
Precipitation 0.04 in - - ()
Sea Level Pressure  
Sea Level Pressure 29.46 in    
Wind  
Wind Speed 17 mph (South)    
Max Wind Speed 29 mph    
Max Gust Speed 41 mph    
Visibility 8 miles    
Events Rain    
Averages and records for this station are not official NWS values.
T = Trace of Precipitation, MM = Missing Value Source: NWS Daily Summary

Daily Weather History Graph

Daily Weather History Graph

Search for Another Location

Airport or City:

Trip Planner

Search our weather history database for the weather conditions in past years. The results will help you decide how hot, cold, wet, or windy it might be!

Date:

Astronomy

Feb. 10, 2013 Rise Set
Actual Time 7:24 AM CST 5:52 PM CST
Civil Twilight 6:55 AM CST 6:20 PM CST
Nautical Twilight 6:23 AM CST 6:53 PM CST
Astronomical Twilight 5:51 AM CST 7:25 PM CST
Moon 7:13 AM CST (2/10) 6:45 PM CST (2/10)
Length of Visible Light 11h 24m
Length of Day
10h 27m
New Moon, 0% of the Moon is Illuminated
Feb 10
New Moon
Feb 17
First Quarter
Feb 25
Full
Mar 4
Last Quarter
Mar 11
New

Hourly Weather History & Observations

Time (CST) Temp. Windchill Dew Point Humidity Pressure Visibility Wind Dir Wind Speed Gust Speed Precip Events Conditions
12:55 AM 38.7 °F 29.8 °F 36.5 °F 92% 29.69 in 10.0 mi ESE 16.1 mph - N/A   Overcast
1:01 AM 39.2 °F 30.8 °F 37.4 °F 93% 29.68 in 10.0 mi ESE 15.0 mph - N/A   Overcast
1:30 AM 39.2 °F 30.5 °F 37.4 °F 93% 29.68 in 10.0 mi ESE 16.1 mph - N/A Rain Light Rain
1:55 AM 37.9 °F 28.9 °F 37.8 °F 99% 29.59 in 7.0 mi East 16.1 mph 24.2 mph 0.02 in Rain Light Rain
2:01 AM 37.4 °F 28.9 °F 37.4 °F 100% 29.60 in 10.0 mi ESE 13.8 mph - N/A Rain Light Rain
2:02 AM 37.4 °F 29.3 °F 37.4 °F 100% 29.60 in 10.0 mi ESE 12.7 mph 27.6 mph N/A   Mostly Cloudy
2:05 AM 37.4 °F 26.9 °F 37.4 °F 100% 29.63 in 10.0 mi SE 20.7 mph - N/A   Mostly Cloudy
2:24 AM 39.2 °F 30.5 °F 37.4 °F 93% 29.62 in 10.0 mi SE 16.1 mph - N/A   Overcast
2:36 AM 37.4 °F 27.8 °F 37.4 °F 100% 29.60 in 6.0 mi ESE 17.3 mph - N/A   Overcast
2:38 AM 37.4 °F 27.8 °F 37.4 °F 100% 29.60 in 5.0 mi ESE 17.3 mph - N/A Rain Light Rain
2:47 AM 37.4 °F 28.5 °F 37.4 °F 100% 29.59 in 3.0 mi ESE 15.0 mph - N/A Rain Rain
2:49 AM 39.2 °F 30.5 °F 37.4 °F 93% 29.58 in 3.0 mi ESE 16.1 mph - N/A   Overcast
2:55 AM 38.3 °F 28.7 °F 38.3 °F 100% 29.58 in 3.0 mi ESE 18.4 mph 24.2 mph 0.00 in   Overcast
3:13 AM 39.2 °F 30.2 °F 39.2 °F 100% 29.56 in 3.0 mi ESE 17.3 mph 28.8 mph N/A   Overcast
3:40 AM 39.2 °F 29.0 °F 39.2 °F 100% 29.53 in 3.0 mi ESE 21.9 mph - N/A Rain Light Rain
3:43 AM 39.2 °F 29.8 °F 39.2 °F 100% 29.52 in 2.5 mi ESE 18.4 mph - N/A Rain Light Rain
3:55 AM 38.7 °F 29.1 °F 38.7 °F 100% 29.50 in 2.5 mi ESE 18.4 mph 25.3 mph 0.00 in Rain Rain
4:04 AM 39.2 °F 29.8 °F 39.2 °F 100% 29.49 in 3.0 mi ESE 18.4 mph 26.5 mph N/A   Overcast
4:14 AM 39.2 °F 29.8 °F 39.2 °F 100% 29.48 in 3.0 mi ESE 18.4 mph 27.6 mph N/A   Overcast
4:40 AM 39.2 °F 29.6 °F 39.2 °F 100% 29.46 in 3.0 mi ESE 19.6 mph - N/A   Overcast
4:42 AM 39.2 °F 29.6 °F 39.2 °F 100% 29.46 in 2.5 mi ESE 19.6 mph - N/A Rain Light Rain
4:46 AM 39.2 °F 28.7 °F 39.2 °F 100% 29.44 in 2.5 mi ESE 23.0 mph - N/A   Overcast
4:55 AM 39.2 °F 28.7 °F 39.2 °F 100% 29.43 in 2.5 mi ESE 23.0 mph 28.8 mph 0.01 in Rain Light Rain
5:13 AM 39.2 °F 28.7 °F 39.2 °F 100% 29.43 in 2.5 mi ESE 23.0 mph - N/A   Overcast
5:45 AM 39.2 °F 29.6 °F 39.2 °F 100% 29.41 in 3.0 mi ESE 19.6 mph - N/A Rain Rain
5:55 AM 40.1 °F 31.3 °F 40.1 °F 100% 29.41 in 3.0 mi SE 17.3 mph - 0.00 in   Overcast
6:02 AM 41.0 °F 33.5 °F 41.0 °F 100% 29.41 in 3.0 mi SE 13.8 mph - N/A Rain Light Rain
6:11 AM 41.0 °F 33.1 °F 41.0 °F 100% 29.41 in 4.0 mi SE 15.0 mph - N/A   Overcast
6:56 AM 41.4 °F 33.6 °F 41.4 °F 100% 29.39 in 10.0 mi SE 15.0 mph - 0.01 in   Overcast
7:22 AM 42.8 °F 35.1 °F 42.8 °F 100% 29.39 in 10.0 mi SSE 16.1 mph - N/A   Overcast
7:31 AM 42.8 °F 35.1 °F 42.8 °F 100% 29.39 in 10.0 mi SE 16.1 mph - N/A   Overcast
7:38 AM 42.8 °F 35.8 °F 42.8 °F 100% 29.38 in 10.0 mi SE 13.8 mph - N/A   Mostly Cloudy
7:47 AM 42.8 °F 35.4 °F 42.8 °F 100% 29.37 in 10.0 mi SE 15.0 mph - N/A   Mostly Cloudy
7:55 AM 43.2 °F 35.6 °F 43.2 °F 100% 29.37 in 10.0 mi SE 16.1 mph - N/A   Overcast
7:57 AM 42.8 °F 35.4 °F 42.8 °F 100% 29.36 in 10.0 mi SE 15.0 mph - N/A   Overcast
8:02 AM 42.8 °F 35.8 °F 42.8 °F 100% 29.36 in 10.0 mi SE 13.8 mph - N/A   Overcast
8:04 AM 42.8 °F 35.8 °F 42.8 °F 100% 29.36 in 10.0 mi SE 13.8 mph - N/A   Overcast
8:06 AM 42.8 °F 35.8 °F 42.8 °F 100% 29.36 in 10.0 mi SE 13.8 mph - N/A   Mostly Cloudy
8:07 AM 42.8 °F 35.8 °F 42.8 °F 100% 29.36 in 10.0 mi SE 13.8 mph - N/A   Mostly Cloudy
8:11 AM 42.8 °F 36.2 °F 42.8 °F 100% 29.36 in 10.0 mi SE 12.7 mph - N/A   Mostly Cloudy
8:55 AM 44.6 °F 38.1 °F 44.4 °F 99% 29.32 in 10.0 mi SE 13.8 mph - N/A   Mostly Cloudy
9:02 AM 44.6 °F 37.4 °F 44.6 °F 100% 29.32 in 10.0 mi SE 16.1 mph - N/A   Mostly Cloudy
9:55 AM 46.6 °F - 41.4 °F 82% 29.29 in 10.0 mi South 16.1 mph 27.6 mph N/A   Mostly Cloudy
9:58 AM 46.4 °F 38.1 °F 39.2 °F 76% 29.29 in 10.0 mi South 24.2 mph 27.6 mph N/A   Mostly Cloudy
9:59 AM 46.4 °F 38.3 °F 39.2 °F 76% 29.29 in 10.0 mi South 23.0 mph 27.6 mph N/A   Mostly Cloudy
10:41 AM 44.6 °F 37.4 °F 37.4 °F 76% 29.30 in 10.0 mi SSW 16.1 mph 26.5 mph N/A   Mostly Cloudy
10:45 AM 42.8 °F 34.0 °F 35.6 °F 76% 29.30 in 10.0 mi SSW 20.7 mph 28.8 mph N/A   Overcast
10:46 AM 42.8 °F 33.8 °F 35.6 °F 76% 29.30 in 10.0 mi South 21.9 mph 28.8 mph N/A   Mostly Cloudy
10:49 AM 42.8 °F 34.5 °F 35.6 °F 76% 29.31 in 10.0 mi South 18.4 mph 28.8 mph N/A   Mostly Cloudy
10:55 AM 42.4 °F 33.3 °F 34.7 °F 74% 29.30 in 10.0 mi SSW 21.9 mph 31.1 mph N/A   Overcast
10:58 AM 42.8 °F 34.3 °F 33.8 °F 70% 29.31 in 10.0 mi SSW 19.6 mph 31.1 mph N/A   Overcast
11:55 AM 39.9 °F 31.1 °F 31.8 °F 73% 29.31 in 10.0 mi SSW 17.3 mph 26.5 mph N/A   Overcast
12:55 PM 38.7 °F 31.4 °F 33.4 °F 81% 29.31 in 10.0 mi South 11.5 mph 24.2 mph N/A   Overcast
1:45 PM 39.2 °F 30.5 °F 37.4 °F 93% 29.29 in 10.0 mi South 16.1 mph 21.9 mph N/A   Overcast
1:50 PM 39.2 °F 32.0 °F 37.4 °F 93% 29.29 in 9.0 mi South 11.5 mph 21.9 mph N/A   Overcast
1:55 PM 38.1 °F 30.2 °F 37.8 °F 99% 29.29 in 8.0 mi SSW 12.7 mph 18.4 mph 0.00 in   Overcast
1:57 PM 37.4 °F 31.4 °F 37.4 °F 100% 29.29 in 8.0 mi SSW 8.1 mph 18.4 mph N/A Rain Light Rain
2:05 PM 37.4 °F 29.3 °F 37.4 °F 100% 29.30 in 9.0 mi SSW 12.7 mph 21.9 mph N/A Rain Light Rain
2:07 PM 37.4 °F 29.8 °F 37.4 °F 100% 29.30 in 10.0 mi SSW 11.5 mph 21.9 mph N/A   Overcast
2:12 PM 37.4 °F 30.3 °F 37.4 °F 100% 29.30 in 7.0 mi SSW 10.4 mph 21.9 mph N/A Rain Light Rain
2:28 PM 37.4 °F 30.8 °F 37.4 °F 100% 29.30 in 4.0 mi SW 9.2 mph - N/A Rain Light Rain
2:46 PM 37.4 °F 30.3 °F 37.4 °F 100% 29.31 in 10.0 mi SW 10.4 mph - N/A   Overcast
2:55 PM 38.5 °F 30.7 °F 38.3 °F 99% 29.31 in 10.0 mi SW 12.7 mph - 0.00 in   Overcast
3:08 PM 39.2 °F 30.8 °F 39.2 °F 100% 29.32 in 10.0 mi WSW 15.0 mph 23.0 mph N/A   Overcast
3:45 PM 39.2 °F 28.5 °F 37.4 °F 93% 29.37 in 10.0 mi West 24.2 mph 32.2 mph N/A   Overcast
3:55 PM 39.2 °F 29.0 °F 37.0 °F 92% 29.38 in 10.0 mi West 21.9 mph 32.2 mph N/A   Overcast
4:10 PM 39.2 °F 29.3 °F 35.6 °F 87% 29.40 in 10.0 mi West 20.7 mph 31.1 mph N/A   Light Drizzle
4:55 PM 36.1 °F 25.0 °F 31.5 °F 83% 29.47 in 10.0 mi West 21.9 mph 34.5 mph 0.00 in Rain Light Rain
5:37 PM 33.8 °F 21.9 °F 30.2 °F 87% 29.51 in 10.0 mi West 21.9 mph 32.2 mph N/A   Overcast
5:55 PM 34.7 °F 24.0 °F 28.6 °F 78% 29.53 in 10.0 mi West 18.4 mph 31.1 mph 0.00 in   Overcast
6:53 PM 33.8 °F 21.9 °F 26.6 °F 75% 29.58 in 10.0 mi West 21.9 mph 29.9 mph N/A   Overcast
6:55 PM 33.8 °F 22.8 °F 25.9 °F 73% 29.59 in 10.0 mi West 18.4 mph 29.9 mph 0.00 in   Overcast
7:02 PM 33.8 °F 22.2 °F 26.6 °F 75% 29.59 in 10.0 mi West 20.7 mph 31.1 mph N/A   Overcast
7:06 PM 33.8 °F 21.6 °F 26.6 °F 75% 29.60 in 10.0 mi West 23.0 mph 32.2 mph N/A Rain Light Rain
7:16 PM 33.8 °F 22.8 °F 26.6 °F 75% 29.60 in 10.0 mi West 18.4 mph 29.9 mph N/A   Overcast
7:55 PM 33.1 °F 20.6 °F 24.6 °F 71% 29.62 in 10.0 mi West 23.0 mph 35.7 mph 0.00 in   Overcast
8:29 PM 32.0 °F 18.9 °F 23.0 °F 69% 29.65 in 10.0 mi WNW 24.2 mph 41.4 mph N/A   Overcast
8:36 PM 32.0 °F 17.9 °F 23.0 °F 69% 29.66 in 10.0 mi WNW 28.8 mph 40.3 mph N/A   Overcast
8:55 PM 32.9 °F 20.1 °F 23.9 °F 69% 29.67 in 10.0 mi West 24.2 mph 34.5 mph N/A   Overcast
8:58 PM 32.0 °F 19.2 °F 23.0 °F 69% 29.67 in 10.0 mi West 23.0 mph 34.5 mph N/A   Overcast
9:55 PM 32.9 °F 19.6 °F 23.0 °F 67% 29.72 in 10.0 mi WNW 26.5 mph 41.4 mph N/A   Overcast
10:55 PM 32.2 °F 18.9 °F 22.5 °F 67% 29.77 in 10.0 mi WNW 25.3 mph 36.8 mph N/A   Overcast
11:55 PM 31.1 °F 17.7 °F 22.3 °F 70% 29.82 in 10.0 mi WNW 24.2 mph 33.4 mph N/A   Partly Cloudy